Hourly Weather Ocotal

Today, 29 July, Thursday

Time Temperature Precipitation Wind Pressure Humidity
00:00 +15°C° 0 mm 1 mps 614 mmHg 97%
01:00 +15°C° 0.2 mm 1 mps 614 mmHg 97%
02:00 +14°C° 0.2 mm 1 mps 613 mmHg 97%
03:00 +14°C° 0.2 mm 1 mps 613 mmHg 97%
04:00 +14°C° 0.1 mm 1 mps 613 mmHg 97%
05:00 +14°C° 0.1 mm 1 mps 613 mmHg 97%
06:00 +14°C° 0.1 mm 1 mps 613 mmHg 97%
07:00 +15°C° 0 mm 1 mps 614 mmHg 93%
08:00 +16°C° 0 mm 1 mps 615 mmHg 89%
09:00 +18°C° 0 mm 1 mps 615 mmHg 85%
10:00 +19°C° 0.1 mm 2 mps 616 mmHg 76%
11:00 +20°C° 0.1 mm 2 mps 616 mmHg 67%
12:00 +21°C° 0.1 mm 2 mps 616 mmHg 59%
13:00 +21°C° 0.3 mm 2 mps 616 mmHg 62%
14:00 +20°C° 0.3 mm 2 mps 615 mmHg 66%
15:00 +20°C° 0.3 mm 2 mps 615 mmHg 69%
16:00 +18°C° 0.4 mm 2 mps 615 mmHg 77%
17:00 +18°C° 0.4 mm 1 mps 614 mmHg 86%
18:00 +16°C° 0.4 mm 1 mps 614 mmHg 94%
19:00 +15°C° 0 mm 1 mps 614 mmHg 94%
20:00 +15°C° 0 mm 1 mps 614 mmHg 94%
21:00 +14°C° 0 mm 1 mps 614 mmHg 95%
22:00 +14°C° 0 mm 1 mps 614 mmHg 95%
23:00 +13°C° 0 mm 1 mps 614 mmHg 95%

Tomorrow, 30 July, Friday

Time Temperature Precipitation Wind Pressure Humidity
00:00 +13°C° 0 mm 1 mps 614 mmHg 96%
01:00 +13°C° 0 mm 1 mps 613 mmHg 96%
02:00 +12°C° 0 mm 1 mps 613 mmHg 96%
03:00 +12°C° 0 mm 1 mps 613 mmHg 96%
04:00 +12°C° 0 mm 1 mps 613 mmHg 95%
05:00 +12°C° 0 mm 1 mps 613 mmHg 95%
06:00 +13°C° 0 mm 1 mps 613 mmHg 95%
07:00 +15°C° 0 mm 1 mps 614 mmHg 86%
08:00 +18°C° 0 mm 1 mps 615 mmHg 78%
09:00 +19°C° 0 mm 2 mps 616 mmHg 69%
10:00 +20°C° 0 mm 2 mps 616 mmHg 66%
11:00 +21°C° 0 mm 2 mps 616 mmHg 62%
12:00 +23°C° 0 mm 2 mps 616 mmHg 59%
13:00 +21°C° 0.4 mm 2 mps 616 mmHg 64%
14:00 +20°C° 0.4 mm 2 mps 615 mmHg 69%
15:00 +19°C° 0.4 mm 2 mps 615 mmHg 74%
16:00 +19°C° 0.1 mm 1 mps 614 mmHg 80%
17:00 +18°C° 0.1 mm 1 mps 614 mmHg 86%
18:00 +16°C° 0.1 mm 1 mps 614 mmHg 92%
19:00 +15°C° 0 mm 1 mps 614 mmHg 93%
20:00 +15°C° 0 mm 1 mps 615 mmHg 94%
21:00 +15°C° 0 mm 1 mps 615 mmHg 96%
22:00 +14°C° 0.1 mm 1 mps 615 mmHg 96%
23:00 +14°C° 0.1 mm 1 mps 614 mmHg 95%

Day after tomorrow, 31 July, Saturday

Time Temperature Precipitation Wind Pressure Humidity
00:00 +14°C° 0.1 mm 1 mps 614 mmHg 95%
01:00 +14°C° 0 mm 1 mps 614 mmHg 95%
02:00 +13°C° 0 mm 1 mps 614 mmHg 94%
03:00 +13°C° 0 mm 1 mps 613 mmHg 94%
04:00 +13°C° 0 mm 1 mps 613 mmHg 94%
05:00 +13°C° 0 mm 1 mps 614 mmHg 94%
06:00 +13°C° 0 mm 1 mps 614 mmHg 93%
07:00 +15°C° 0 mm 1 mps 615 mmHg 86%
08:00 +18°C° 0 mm 1 mps 615 mmHg 79%
09:00 +20°C° 0 mm 1 mps 616 mmHg 71%
10:00 +20°C° 0.3 mm 1 mps 616 mmHg 71%
11:00 +20°C° 0.3 mm 2 mps 616 mmHg 71%
12:00 +20°C° 0.3 mm 2 mps 616 mmHg 71%
13:00 +20°C° 1.5 mm 2 mps 615 mmHg 76%
14:00 +19°C° 1.5 mm 2 mps 615 mmHg 80%
15:00 +20°C° 1.5 mm 1 mps 615 mmHg 84%
16:00 +19°C° 0.9 mm 1 mps 614 mmHg 88%
17:00 +18°C° 0.9 mm 1 mps 614 mmHg 92%
18:00 +16°C° 0.9 mm 1 mps 614 mmHg 96%
19:00 +16°C° 0.1 mm 1 mps 614 mmHg 96%
20:00 +15°C° 0.1 mm 1 mps 615 mmHg 96%
21:00 +15°C° 0.1 mm 1 mps 615 mmHg 97%
22:00 +15°C° 0.1 mm 1 mps 615 mmHg 97%
23:00 +15°C° 0.1 mm 1 mps 615 mmHg 97%

1 August, Sunday

Time Temperature Precipitation Wind Pressure Humidity
00:00 +15°C° 0.1 mm 1 mps 614 mmHg 97%
01:00 +14°C° 0 mm 1 mps 614 mmHg 96%
02:00 +14°C° 0 mm 1 mps 614 mmHg 96%
03:00 +14°C° 0 mm 1 mps 614 mmHg 96%
04:00 +14°C° 0 mm 1 mps 614 mmHg 96%
05:00 +14°C° 0 mm 1 mps 614 mmHg 96%
06:00 +14°C° 0 mm 1 mps 615 mmHg 95%
07:00 +15°C° 0.1 mm 1 mps 615 mmHg 91%
08:00 +16°C° 0.1 mm 1 mps 616 mmHg 87%
09:00 +19°C° 0.1 mm 1 mps 616 mmHg 82%
10:00 +19°C° 1.2 mm 1 mps 616 mmHg 84%
11:00 +19°C° 1.2 mm 1 mps 616 mmHg 86%
12:00 +19°C° 1.2 mm 1 mps 616 mmHg 88%
13:00 +19°C° 2.1 mm 1 mps 616 mmHg 90%
14:00 +18°C° 2.1 mm 1 mps 615 mmHg 92%
15:00 +18°C° 2.1 mm 1 mps 615 mmHg 94%
16:00 +16°C° 0.6 mm 1 mps 615 mmHg 95%
17:00 +16°C° 0.6 mm 1 mps 615 mmHg 96%
18:00 +15°C° 0.6 mm 1 mps 615 mmHg 97%
19:00 +15°C° 0.1 mm 1 mps 615 mmHg 97%
20:00 +14°C° 0.1 mm 1 mps 615 mmHg 97%
21:00 +14°C° 0.1 mm 1 mps 616 mmHg 97%
22:00 +14°C° 0.1 mm 1 mps 615 mmHg 97%
23:00 +14°C° 0.1 mm 1 mps 615 mmHg 97%

2 August, Monday

Time Temperature Precipitation Wind Pressure Humidity
00:00 +14°C° 0.1 mm 1 mps 615 mmHg 97%
01:00 +14°C° 0 mm 1 mps 615 mmHg 97%
02:00 +14°C° 0 mm 1 mps 614 mmHg 97%
03:00 +14°C° 0 mm 1 mps 614 mmHg 97%
04:00 +14°C° 0 mm 1 mps 614 mmHg 97%
05:00 +14°C° 0 mm 1 mps 614 mmHg 97%
06:00 +15°C° 0 mm 1 mps 615 mmHg 96%
07:00 +16°C° 0.2 mm 1 mps 615 mmHg 93%
08:00 +18°C° 0.2 mm 1 mps 616 mmHg 89%
09:00 +19°C° 0.2 mm 1 mps 616 mmHg 85%
10:00 +19°C° 1.5 mm 1 mps 616 mmHg 86%
11:00 +19°C° 1.5 mm 1 mps 616 mmHg 86%
12:00 +19°C° 1.5 mm 1 mps 616 mmHg 87%
13:00 +19°C° 2.4 mm 1 mps 615 mmHg 90%
14:00 +18°C° 2.4 mm 1 mps 615 mmHg 93%
15:00 +16°C° 2.4 mm 1 mps 614 mmHg 96%
16:00 +16°C° 1.5 mm 1 mps 614 mmHg 96%
17:00 +15°C° 1.5 mm 1 mps 614 mmHg 97%
18:00 +15°C° 1.5 mm 1 mps 614 mmHg 98%
19:00 +15°C° 0.6 mm 1 mps 615 mmHg 98%
20:00 +14°C° 0.6 mm 0 mps 615 mmHg 97%
21:00 +14°C° 0.6 mm 0 mps 615 mmHg 97%
22:00 +14°C° 0.3 mm 0 mps 615 mmHg 97%
23:00 +13°C° 0.3 mm 0 mps 615 mmHg 98%

3 August, Tuesday

Time Temperature Precipitation Wind Pressure Humidity
00:00 +13°C° 0.3 mm 0 mps 614 mmHg 98%
01:00 +13°C° 0.1 mm 0 mps 614 mmHg 98%
02:00 +13°C° 0.1 mm 0 mps 614 mmHg 97%
03:00 +13°C° 0.1 mm 0 mps 614 mmHg 97%
04:00 +13°C° 0.3 mm 0 mps 614 mmHg 97%
05:00 +13°C° 0.3 mm 0 mps 614 mmHg 97%
06:00 +13°C° 0.3 mm 0 mps 614 mmHg 97%
07:00 +14°C° 0.4 mm 0 mps 615 mmHg 94%
08:00 +15°C° 0.4 mm 0 mps 615 mmHg 92%
09:00 +16°C° 0.4 mm 0 mps 616 mmHg 90%
10:00 +15°C° 0.6 mm 0 mps 616 mmHg 91%
11:00 +15°C° 0.6 mm 0 mps 616 mmHg 92%
12:00 +15°C° 0.6 mm 0 mps 615 mmHg 94%
13:00 +15°C° 0.7 mm 0 mps 615 mmHg 94%
14:00 +15°C° 0.7 mm 0 mps 615 mmHg 94%
15:00 +14°C° 0.7 mm 0 mps 614 mmHg 95%
16:00 +14°C° 0.8 mm 0 mps 614 mmHg 95%
17:00 +14°C° 0.8 mm 0 mps 614 mmHg 96%
18:00 +14°C° 0.8 mm 0 mps 614 mmHg 96%
19:00 +13°C° 0.2 mm 0 mps 614 mmHg 96%
20:00 +13°C° 0.2 mm 0 mps 615 mmHg 95%
21:00 +13°C° 0.2 mm 0 mps 615 mmHg 95%
22:00 +13°C° 0 mm 0 mps 615 mmHg 95%
23:00 +13°C° 0 mm 0 mps 615 mmHg 96%
Show more

We Need Your Consent

Meteoprog and our Service Providers may store and access personal data such as cookies, device identifiers or other similar technologies on your device and process such data to personalise content and ads, as well as provide social media features and to analyse the traffic.

  • Store and/or access information on your device

    Cookies, device identifiers or other information can be stored or accessed on your device for the purposes indicated above.

  • Personalised ads and content, ad and content measurement, audience insights, and products development

    Ads and content can be personalised based on a profile. More data can be added to better personalise ads and content. Ad and content performance can be measured. Insights about the audience who saw the ads and content can be derived. Such data can be used to develop or improve user’s experience, systems and software.

By clicking ‘I Agree’ you will allow the use of indicated cookies, device identifiers, web beacons or other similar technologies. Your settings can be changed in the browser on your device.

For certain purposes, legitimate interests may be relied on, rather than consent. You can read more about this in our Privacy and Cookie Policy.